Regional Weather Roundup
Issued by NWS

Home | Current Version | Previous Version | Text Only | Print | Product List | Glossary Off
Versions: 1 2 3 4 5 6 7 8 9 10 11 12 13 14 15 16 17 18 19 20 21 22 23 24 25 26 27 28 29 30 31 32 33 34 35 36 37 38 39 40 41 42 43 44 45 46 47 48 49 50

000
ASUS43 KIND 231459
RWRIN

WEATHER ROUNDUP FOR INDIANA
NATIONAL WEATHER SERVICE INDIANAPOLIS IN
1000 AM EST THU FEB 23 2017

NOTE: "FAIR" INDICATES FEW OR NO CLOUDS BELOW 12,000 FEET WITH NO
SIGNIFICANT WEATHER AND/OR OBSTRUCTIONS TO VISIBILITY.

* - STATION DOES NOT REPORT WEATHER SUCH AS PRECIPITATION OR FOG.

+ - STATION NOT QUALITY CONTROLLED BY THE NATIONAL WEATHER SERVICE.
    USE DATA WITH CAUTION...ESPECIALLY DEWPOINT AND RELATIVE
    HUMIDITY OBSERVATIONS.

INZ001>003-010>013-019-020-231600-
NORTHWEST INDIANA

CITY           SKY/WX    TMP DP  RH WIND       PRES   REMARKS
GARY /AIRPORT/ MOSUNNY   52  43  71 N7        29.79R
KNOX *+        MOSUNNY   50  43  76 NW7       29.77R
MICHIGAN CITY+ SUNNY     50  43  76 N10       29.78F
RENSSELAER +   SUNNY     54  54 100 NW5       29.77S

$$

LMZ046-743>745-231600-
SOUTHERN LAKE MICHIGAN

STATION/POSITION TIME  TEMP    WIND        PRES    WAVE
                       AIR SEA DIR/SP/G            HT
                 (UTC) (F)     (DEG/KT/KT) (MB)    (FT)
BURNS HARBOR     1440   44      50/  3/  6 1009.1R
MICHIGAN CITY    1430   43     290/  5/  6   N/A

$$

INZ004-005-014>016-021>024-231600-
NORTH CENTRAL INDIANA

CITY           SKY/WX    TMP DP  RH WIND       PRES   REMARKS
ELKHART        MOSUNNY   52  46  82 NW7       29.76R
GOSHEN         SUNNY     55  46  71 NW6       29.75S
SOUTH BEND     SUNNY     51  46  83 NW10      29.77S

$$

INZ006>009-017-018-025>027-231600-
NORTHEAST INDIANA

CITY           SKY/WX    TMP DP  RH WIND       PRES   REMARKS
ANGOLA *+      MOSUNNY   55  46  71 NW5       29.75R
FORT WAYNE     NOT AVBL
KENDALLVILLE + MOSUNNY   55  51  86 W6        29.76R

$$

INZ028-029-035-036-043>045-051>053-231600-
WEST CENTRAL INDIANA

CITY           SKY/WX    TMP DP  RH WIND       PRES   REMARKS
LAFAYETTE      CLOUDY    52  52 100 W3        29.77R FOG
TERRE HAUTE    MOSUNNY   60  55  83 SW10      29.77F

$$

INZ030>032-037>040-046>048-054>057-064-065-231600-
CENTRAL INDIANA

CITY           SKY/WX    TMP DP  RH WIND       PRES   REMARKS
ANDERSON       CLOUDY    57  55  94 SW6       29.79R
COLUMBUS       SUNNY     59  57  94 S12       29.80R
GREENWOOD *+   PTSUNNY   60  57  90 SW7       29.80R
INDIANAPOLIS   PTSUNNY   60  56  86 SW10      29.78S
-EAGLE CREEK   CLOUDY    59  55  87 VRB5      29.78S
KOKOMO +       PTSUNNY   58  54  86 W9        29.78S
MT COMFORT *+  PTSUNNY   57  55  94 S6        29.79R
SHELBYVILLE    CLOUDY    59  55  87 S9        29.79R

$$

INZ033-034-041-042-049-050-058-059-231600-
EAST CENTRAL INDIANA

CITY           SKY/WX    TMP DP  RH WIND       PRES   REMARKS
MUNCIE         CLOUDY    59  55  87 SW5       29.78S

$$

INZ060-061-067>069-081>083-085>088-231600-
SOUTHWEST INDIANA

CITY           SKY/WX    TMP DP  RH WIND       PRES   REMARKS
EVANSVILLE     CLOUDY    63  56  78 S8        29.81S
HUNTINGBURG *+ CLOUDY    63  57  82 S9        29.82S

$$

INZ062-063-066-070>080-084-089>092-231600-
SOUTH CENTRAL AND SOUTHEAST INDIANA

CITY           SKY/WX    TMP DP  RH WIND       PRES   REMARKS
BLOOMINGTON    MOSUNNY   63  55  75 SW10      29.79R
MADISON *+     PTSUNNY   61  55  82 S10       29.84S
SEYMOUR +      SUNNY     64  57  77 S12G17    29.80S

$$




USA.gov is the U.S. government's official web portal to all federal, state and local government web resources and services.